Theta_e
331 330 329 328 329 329 327 327 327 327 327 326 325 323 322 321 320 319 318 317 316 315 317 318 316 314 313 315 316 318 319 320 321 321 322 324 324 325 326 326 326 326 326 328 328 328 328 328 328 328 328 328 328 329 329 329 329 330 330 330 330 330 331
327 327 326 326 327 327 326 325 325 325 324 323 321 319 318 317 316 316 315 313 312 312 314 314 312 312 312 313 315 315 316 316 317 318 320 321 321 322 322 322 323 324 325 326 327 327 327 327 328 327 328 328 328 328 328 328 329 329 329 330 330 330 330
325 324 324 325 325 324 324 324 323 323 321 319 317 316 315 315 315 314 313 311 311 311 311 311 310 310 310 313 313 311 311 312 313 314 316 318 318 319 319 319 321 322 323 324 324 325 325 325 326 327 327 327 327 327 327 327 328 328 328 329 330 330 330
323 323 323 323 324 323 322 322 321 319 317 316 315 314 314 314 313 312 310 309 308 308 308 308 307 306 308 311 310 308 309 310 310 312 314 315 316 316 317 318 318 320 320 321 322 322 322 323 323 324 325 325 325 325 326 326 327 327 327 328 328 329 330
322 322 321 321 321 321 320 319 318 317 315 314 314 314 313 312 310 307 306 306 305 304 304 303 303 302 304 305 304 305 306 307 309 310 311 312 313 314 315 316 316 317 318 319 319 319 320 320 321 321 322 322 323 323 324 325 325 326 326 326 327 328 330
320 319 319 319 319 319 318 318 317 315 314 313 313 312 310 306 304 303 302 301 300 299 299 299 299 299 299 299 299 301 302 302 304 305 307 309 311 312 312 313 313 314 315 316 317 317 317 318 318 319 319 319 320 320 321 322 323 324 325 325 327 327 328
317 317 317 317 317 317 317 316 315 314 313 312 311 309 305 302 300 299 298 298 298 298 298 298 298 298 298 298 298 298 298 298 298 299 301 304 305 308 309 309 311 312 313 313 313 314 314 315 316 316 317 317 317 318 318 319 320 322 323 324 325 326 327
315 315 315 315 315 315 315 314 313 313 312 310 306 302 300 298 298 297 297 297 297 297 297 297 297 297 297 299 298 297 297 299 299 297 299 302 302 304 306 307 309 311 311 310 310 311 311 312 313 314 314 314 315 315 316 316 317 319 320 321 321 322 325
314 314 313 313 314 313 313 312 311 311 308 304 300 298 297 297 296 296 296 296 296 296 296 296 296 296 296 298 297 296 297 300 302 300 300 303 303 304 305 305 308 310 309 307 306 308 310 310 311 311 311 311 312 313 313 314 315 316 317 318 318 319 320
313 313 312 312 312 311 311 310 309 307 302 298 297 296 296 296 296 296 295 295 296 296 296 296 296 296 296 296 296 296 297 301 306 304 301 301 302 303 305 306 308 309 307 305 305 306 308 309 309 309 309 309 310 311 311 312 312 312 313 314 315 316 316
312 311 311 311 311 311 310 308 304 300 297 297 297 296 296 296 295 295 295 295 295 295 296 295 295 295 296 295 295 295 296 300 304 303 300 300 300 302 305 307 308 308 306 305 305 306 307 307 307 307 307 307 308 309 309 309 309 310 310 309 309 310 311
310 310 311 311 310 308 306 302 298 296 297 297 297 298 298 297 297 297 296 296 295 295 295 295 295 295 295 295 295 295 296 298 301 302 302 302 300 300 304 306 306 306 305 305 305 305 305 306 305 305 306 306 306 307 307 307 308 308 308 308 305 302 302
310 310 309 308 305 302 300 298 296 296 297 297 297 298 299 299 298 298 298 297 296 295 295 295 295 295 295 295 295 295 295 297 300 301 302 303 302 301 303 305 305 304 303 304 304 304 304 304 303 303 303 304 305 305 305 305 306 306 305 306 306 303 299
307 306 304 301 298 298 297 297 296 297 297 298 298 298 298 299 299 298 298 296 295 295 295 295 295 295 295 295 295 295 295 296 299 300 301 303 304 303 304 305 304 303 303 303 302 302 303 302 301 300 301 302 303 303 304 304 304 304 303 302 304 304 300
300 299 298 297 297 296 296 296 296 296 296 298 298 298 298 299 300 299 297 295 295 295 294 294 295 295 295 296 297 297 297 297 299 301 302 303 303 303 304 303 303 303 302 302 302 301 301 300 299 298 299 300 301 301 302 303 303 303 303 301 301 303 301
297 297 297 297 296 296 295 296 297 297 297 297 297 298 298 298 299 299 297 295 294 294 294 294 295 294 294 297 299 299 299 300 301 302 303 303 302 303 303 303 302 302 301 301 301 300 299 298 298 298 298 299 299 299 300 301 301 302 302 302 302 303 303
296 296 296 296 296 295 295 296 297 297 297 297 297 297 298 298 298 298 297 295 294 294 294 294 294 294 294 296 299 300 300 301 303 303 303 302 302 302 302 302 302 301 301 300 300 299 298 298 298 298 298 298 298 298 299 299 300 300 301 302 302 303 304
296 296 295 295 295 295 295 296 296 297 297 297 297 296 297 299 299 298 296 295 294 294 294 294 294 294 294 294 298 300 300 301 303 303 302 302 302 302 301 301 301 300 300 299 299 298 297 297 297 297 297 297 298 298 298 298 299 299 300 301 302 302 303
295 295 295 295 294 294 294 294 295 296 297 296 295 295 295 297 298 297 295 294 294 294 294 294 294 294 295 294 296 299 300 301 303 302 302 302 302 301 301 300 300 299 299 298 298 297 297 297 296 296 296 297 297 297 297 298 298 299 299 300 300 301 302
295 294 295 294 294 294 294 294 294 295 296 295 295 295 295 296 296 295 294 293 294 294 294 294 294 294 295 294 295 300 301 302 303 302 301 302 301 301 300 300 299 299 298 297 297 297 297 296 296 296 296 296 297 297 297 297 298 298 298 299 299 300 301
294 294 294 294 294 294 294 294 294 294 294 294 295 296 297 297 297 295 294 293 293 294 293 294 294 294 295 294 295 300 302 302 302 302 301 301 300 300 299 299 299 298 298 297 296 296 296 295 295 295 296 296 296 296 296 297 297 298 298 299 299 300 300
294 294 294 294 294 294 294 294 294 294 294 294 295 296 298 299 299 297 295 294 293 293 293 293 294 293 294 294 295 300 302 301 301 301 301 300 300 299 299 298 298 298 297 297 296 296 296 295 295 295 296 296 296 296 296 296 297 298 298 298 299 299 300
295 295 295 294 294 294 294 294 294 294 293 293 294 295 297 299 299 297 296 294 293 293 293 293 293 293 294 294 295 299 301 301 301 301 300 300 299 299 298 298 298 297 297 297 296 296 295 295 295 296 296 296 296 296 296 297 297 297 297 298 298 298 299
297 296 295 295 294 294 294 294 294 293 294 293 293 294 296 297 297 297 296 293 292 293 293 293 294 293 294 295 295 299 300 300 300 300 299 299 299 298 298 297 297 297 297 297 297 296 295 295 295 296 296 296 296 296 296 296 297 297 297 297 297 298 298
299 298 297 296 295 295 294 294 294 294 294 294 293 294 295 296 298 300 297 293 292 293 293 293 294 293 294 294 296 298 300 300 300 300 299 299 298 298 298 297 297 297 296 296 296 295 294 295 295 295 296 296 296 296 296 296 296 296 297 297 297 298 298
299 299 298 297 296 296 295 295 294 294 294 293 293 293 294 295 298 301 300 295 292 293 293 293 293 293 294 294 296 299 300 300 299 299 299 298 298 298 297 297 296 296 296 296 295 294 294 294 295 295 296 296 296 296 296 296 296 296 297 297 297 297 297
299 299 298 297 297 297 296 295 295 296 295 294 294 294 294 294 296 300 301 298 293 292 293 293 293 293 294 294 296 298 299 299 299 299 299 298 298 297 297 296 296 296 295 295 294 293 294 294 295 295 295 296 296 296 296 296 296 296 296 296 296 296 296
299 299 298 298 297 296 296 297 297 297 296 296 296 295 294 294 294 297 300 300 295 292 292 293 292 293 293 295 296 298 299 299 299 299 298 298 298 297 297 296 296 295 295 294 293 293 294 294 295 295 295 295 296 296 296 296 296 296 297 296 296 296 296
299 299 298 298 297 296 296 298 297 297 297 296 296 296 295 295 294 294 296 299 297 293 291 292 292 292 293 294 296 298 298 298 299 299 298 298 297 297 297 296 296 295 294 293 293 293 293 294 294 295 295 295 295 296 297 297 297 297 297 297 297 296 296
299 299 299 299 297 296 298 298 298 298 298 298 297 297 296 295 294 292 292 295 297 295 292 291 292 292 292 293 294 297 298 298 298 298 298 297 297 297 296 296 295 295 294 293 293 293 293 293 294 295 295 295 295 295 296 297 297 297 297 297 297 296 296
299 299 299 298 297 297 298 298 298 299 299 298 299 299 298 297 296 294 291 291 294 295 293 291 291 292 292 292 293 295 297 296 297 298 298 297 297 297 296 296 296 295 294 293 293 294 293 293 293 294 295 295 294 295 295 295 296 297 297 297 297 296 296
300 299 299 298 297 298 298 298 299 299 299 299 299 298 298 299 297 296 295 292 292 293 292 291 291 291 292 292 292 294 295 295 296 297 298 297 297 297 296 296 296 295 294 293 293 294 294 293 293 294 294 294 294 295 295 295 295 296 296 297 296 296 296
299 299 298 298 298 298 298 299 299 299 299 299 299 298 298 298 298 297 297 296 293 292 292 292 291 291 291 292 292 293 294 293 294 296 298 297 296 296 296 296 296 295 294 293 293 294 294 294 294 294 294 294 294 294 295 295 295 295 296 296 296 296 296
299 298 297 297 298 298 299 299 300 299 299 298 299 299 300 299 299 299 298 298 297 295 293 293 292 291 291 291 291 292 292 292 292 294 296 297 296 296 296 296 295 295 294 294 293 293 294 294 294 294 294 294 293 294 294 295 295 295 296 296 296 296 295
297 297 296 297 297 298 298 299 300 300 299 299 299 300 300 300 300 300 299 299 299 297 296 294 292 291 291 291 291 291 291 292 291 293 295 297 296 296 296 296 295 295 294 294 294 293 294 294 294 294 294 294 294 294 294 295 295 295 295 295 295 295 295
296 297 297 298 298 298 299 299 300 300 300 300 300 300 300 300 299 299 299 299 299 298 297 295 292 291 291 291 291 291 291 291 291 292 294 296 296 295 296 295 295 294 294 294 294 293 294 294 294 294 294 294 294 294 294 294 295 295 295 295 295 295 295
297 297 299 300 300 300 300 300 300 300 301 300 300 300 300 299 299 299 299 299 299 298 298 297 294 291 291 291 291 290 290 291 291 291 294 295 295 295 295 295 295 294 294 294 294 294 294 294 294 294 294 294 294 294 294 294 294 294 294 294 294 294 295
Wind_Speed
4 7 8 8 9 8 7 7 7 8 9 11 12 11 9 8 7 6 5 5 4 4 5 4 4 5 4 4 5 5 5 5 6 7 9 10 11 11 11 12 13 13 14 16 18 20 22 24 23 21 18 17 18 18 19 19 20 21 22 23 23 22 23
3 4 4 5 6 5 4 6 7 7 10 11 9 5 4 5 5 5 6 7 7 7 6 4 4 6 6 6 7 7 6 5 5 6 7 8 10 11 12 12 12 13 14 15 16 17 20 22 23 21 20 20 21 21 19 19 20 20 21 22 23 23 24
2 1 2 4 4 2 4 6 7 7 7 6 4 5 6 6 6 7 7 8 9 8 7 6 6 7 7 7 7 7 7 6 6 5 5 7 8 9 10 11 12 13 14 15 16 18 19 20 22 23 23 23 23 23 20 19 20 21 21 22 24 24 25
2 1 2 4 4 2 3 4 4 3 2 3 5 6 6 6 7 9 9 10 9 9 8 8 8 9 8 7 8 8 8 8 7 6 6 7 7 7 8 9 10 11 13 14 16 18 19 20 22 24 24 23 24 24 22 21 22 22 23 24 24 24 24
2 2 3 3 4 3 2 1 2 3 4 5 5 6 7 9 10 10 10 10 10 9 9 9 9 10 9 8 9 9 9 8 8 8 7 8 8 8 9 9 9 10 10 12 14 15 17 18 20 22 23 23 24 25 24 24 24 22 22 23 24 23 22
4 4 5 5 5 5 4 4 5 5 6 6 6 6 9 11 11 11 11 10 10 10 10 10 10 10 10 11 11 10 10 10 10 10 9 9 9 9 10 10 10 10 10 11 13 14 15 16 18 20 22 23 24 25 25 25 24 23 22 21 21 21 23
5 6 6 6 6 6 6 5 6 6 6 6 7 8 11 12 12 11 11 11 11 11 11 11 11 11 12 13 14 14 14 15 16 15 13 13 13 11 12 12 11 11 12 12 13 14 15 16 17 19 22 24 25 25 26 25 25 25 24 22 21 21 24
5 6 7 7 7 7 6 6 7 6 6 8 10 11 11 11 12 12 12 12 12 13 13 13 13 14 15 15 16 16 16 17 17 18 16 16 16 14 14 13 13 13 13 13 14 14 15 16 16 18 21 24 27 27 26 26 26 28 27 27 28 25 22
6 6 7 7 7 7 7 7 7 7 8 11 12 12 12 12 13 14 13 14 15 15 15 16 16 17 17 17 17 17 17 17 16 17 17 15 15 14 14 14 13 13 14 15 15 14 14 15 16 17 18 20 24 27 27 26 27 31 32 30 31 32 27
8 8 8 9 8 8 8 7 8 10 12 13 14 13 13 13 14 15 16 16 16 16 17 18 18 19 19 19 19 19 18 17 14 14 16 16 15 15 14 14 13 12 14 16 15 15 15 15 16 17 17 17 20 23 26 27 26 30 35 32 30 36 37
8 8 9 9 8 8 8 9 11 14 14 14 14 14 14 14 15 16 17 18 18 18 18 19 20 20 20 20 20 20 20 17 14 14 16 17 16 15 14 14 13 13 14 16 15 15 15 15 16 17 17 17 18 20 22 27 28 26 32 35 33 36 39
9 9 10 9 9 10 11 13 15 15 15 14 14 14 14 14 15 16 17 18 18 18 19 20 20 20 20 21 21 21 20 18 16 15 16 16 16 16 15 14 13 14 15 15 15 16 16 16 17 17 18 18 18 19 20 24 28 28 29 34 37 38 40
10 10 11 12 13 14 14 15 16 15 15 14 14 14 14 13 15 16 16 17 18 19 19 20 20 20 21 21 21 21 20 19 16 15 15 15 16 16 15 14 15 15 16 16 16 17 16 17 18 19 19 19 18 20 21 22 28 31 31 31 34 38 41
12 12 14 15 16 17 16 16 15 15 15 14 13 14 14 14 15 15 16 16 18 19 19 20 20 21 21 21 21 21 21 19 17 16 15 14 15 15 15 14 15 16 17 17 17 18 17 18 20 21 20 19 19 20 21 23 27 31 34 35 33 35 39
16 16 18 18 17 17 17 17 16 15 15 14 13 13 13 14 14 14 15 17 18 18 19 20 20 21 21 20 20 20 21 20 18 16 16 15 14 14 14 14 15 16 17 17 17 17 18 20 22 23 22 21 21 21 22 23 27 30 34 37 37 37 38
18 17 18 17 17 18 17 16 16 15 14 14 14 14 13 13 14 13 15 16 17 18 18 19 20 20 20 19 18 18 19 18 17 15 14 14 15 15 15 15 15 17 17 17 17 18 19 21 22 22 23 24 23 24 24 23 25 29 32 36 37 36 36
18 18 18 17 17 18 17 16 15 14 14 13 13 14 13 14 14 13 14 16 17 17 18 19 19 19 19 19 16 16 17 15 14 14 14 14 15 15 15 16 16 17 17 17 18 19 19 21 22 21 22 24 24 24 25 25 25 28 31 34 35 34 33
18 18 18 17 17 17 17 16 15 14 13 13 13 13 13 14 13 13 14 16 17 17 18 18 19 19 19 19 17 15 16 15 13 13 14 14 14 15 15 16 16 17 17 18 19 19 19 21 22 23 24 24 23 23 25 27 27 28 30 32 35 34 32
18 17 17 16 16 16 16 15 14 14 13 13 13 13 14 14 12 12 14 16 17 17 18 18 18 19 19 18 17 16 16 16 13 13 14 13 14 15 15 16 16 17 17 19 21 21 21 22 24 27 29 27 25 25 27 28 27 27 29 31 33 33 32
17 16 16 16 15 15 15 14 14 14 13 13 14 13 14 14 13 14 15 17 18 18 18 19 19 20 19 18 18 16 15 14 13 14 14 13 14 15 15 16 16 16 17 19 20 20 20 23 28 31 31 30 30 30 29 28 27 27 28 29 31 32 32
16 16 15 16 15 15 15 14 13 13 13 14 14 14 14 14 14 15 16 18 19 19 19 20 20 20 19 18 17 15 14 13 13 13 14 13 14 15 16 16 15 16 17 19 22 21 22 28 33 34 33 32 32 31 29 28 28 28 28 29 31 32 32
17 16 16 15 15 15 15 14 14 14 14 14 15 14 13 12 12 14 17 18 19 19 20 21 21 21 19 18 16 13 13 13 13 13 13 14 14 15 16 16 16 17 19 22 25 25 27 34 37 36 35 33 30 28 27 28 29 29 29 30 31 32 32
17 17 16 16 15 15 15 15 15 15 15 15 15 14 14 13 13 14 17 19 20 20 21 21 21 19 18 17 16 14 12 12 12 12 14 14 14 16 16 17 17 18 21 23 23 25 31 36 37 36 35 31 28 27 28 29 29 30 30 31 31 32 33
16 16 16 16 16 16 16 16 15 15 15 16 16 15 15 15 15 15 17 20 21 21 21 21 20 19 17 16 16 15 12 12 12 12 14 14 15 16 16 17 19 20 22 24 23 27 35 38 37 36 35 31 28 28 29 29 30 29 30 31 31 31 33
15 16 16 16 17 16 16 16 16 16 16 17 17 16 16 15 14 13 15 19 21 21 21 21 20 19 17 16 17 15 12 12 11 12 14 14 15 16 16 17 20 21 23 24 25 32 38 38 38 37 33 30 28 29 29 29 29 28 29 31 32 32 34
16 16 16 16 16 16 16 17 17 17 17 18 17 18 17 16 14 11 11 16 21 21 21 22 22 19 18 17 17 15 11 11 12 12 13 14 15 16 17 18 20 23 24 24 28 35 38 39 39 35 29 28 29 31 31 29 27 26 28 31 32 33 35
16 16 16 16 16 16 17 17 17 16 16 17 17 17 18 17 16 13 9 12 19 22 21 23 23 20 18 18 18 16 12 11 12 13 13 14 15 16 17 18 20 23 24 24 29 34 36 38 38 31 27 29 31 34 32 28 28 28 29 30 30 33 35
17 16 16 16 16 17 17 16 15 15 14 15 15 15 17 17 16 14 9 8 15 21 22 22 23 23 20 18 19 17 13 11 12 13 13 14 15 15 17 18 20 23 24 24 29 34 37 40 36 28 28 31 32 35 33 29 31 32 31 31 30 31 34
17 16 16 16 16 17 17 15 14 14 14 14 15 15 15 16 16 15 13 9 11 19 22 22 23 24 23 20 19 16 14 12 12 13 14 15 15 16 18 20 20 24 26 26 28 31 37 41 35 27 28 32 34 38 37 34 34 34 33 33 32 32 33
16 16 15 15 16 16 16 14 13 12 12 12 12 13 13 14 15 17 17 14 11 14 21 23 22 23 24 23 20 17 14 14 13 13 15 15 15 17 21 23 23 26 29 29 27 29 35 40 36 28 28 33 38 41 41 39 37 36 36 35 34 35 36
16 15 15 15 16 15 15 14 13 12 11 11 10 10 10 10 12 15 18 18 15 13 19 23 23 23 23 23 22 19 16 15 14 13 15 16 15 17 20 23 25 27 29 29 27 28 31 36 37 31 28 35 42 44 43 42 41 40 40 38 37 38 39
15 15 15 15 15 14 13 12 11 10 9 9 9 8 8 8 9 11 14 18 19 17 19 22 23 23 23 23 23 20 17 17 16 13 14 16 16 16 18 21 23 26 28 28 28 28 29 33 37 33 31 39 46 45 43 42 42 43 42 40 40 41 42
15 15 15 16 14 13 13 12 11 9 8 8 8 7 7 7 8 9 10 12 16 19 20 22 23 23 23 23 23 22 19 19 18 13 13 16 17 17 18 20 21 25 28 30 30 28 26 30 34 33 34 40 45 45 44 42 40 40 39 39 42 45 46
16 15 15 15 14 12 12 11 10 9 8 8 8 7 6 5 6 7 7 8 12 16 19 21 22 22 22 21 22 22 21 20 19 15 12 15 17 17 18 20 22 26 29 31 32 30 26 28 32 33 33 38 41 43 44 41 37 34 35 39 45 48 50
17 16 15 14 13 12 11 10 9 8 8 7 7 7 5 5 5 5 5 6 8 12 16 19 20 21 21 20 21 22 21 20 20 17 13 14 18 18 18 19 23 28 31 30 32 33 29 28 31 32 32 36 39 40 41 40 35 30 32 42 50 51 52
18 17 15 13 12 10 10 9 7 7 6 5 5 5 4 5 5 4 5 5 6 8 11 16 19 20 19 20 20 21 22 22 22 18 13 13 18 18 17 20 24 29 31 30 31 33 31 29 31 31 31 34 36 36 38 40 37 33 37 47 52 53 54
17 16 13 11 10 9 8 7 6 5 5 4 4 4 4 4 4 4 5 5 5 7 8 11 16 19 19 20 20 21 23 23 22 19 15 14 17 17 17 20 25 29 30 30 30 30 29 30 31 32 31 32 34 34 36 40 39 37 43 51 52 53 56
Wind_Direction
212 236 239 236 245 253 258 261 258 266 280 289 293 293 295 302 310 318 334 357 12 31 26 358 337 352 352 336 329 327 327 322 315 314 314 311 308 305 295 284 283 287 294 299 299 300 303 302 301 302 301 298 294 294 293 291 290 288 287 288 287 281 275
208 230 236 238 245 238 243 269 279 288 296 300 305 319 358 15 18 17 33 45 52 64 57 30 21 22 18 12 4 358 351 339 323 313 310 312 313 309 306 307 307 306 306 304 304 307 308 307 306 306 307 305 301 299 297 296 294 291 289 288 287 283 278
102 128 181 210 219 209 240 267 287 298 301 311 346 39 43 37 37 40 52 58 58 64 62 52 37 26 25 21 11 5 2 355 345 336 323 323 324 312 310 321 324 319 317 315 317 319 315 316 316 313 313 311 309 307 304 301 299 295 291 288 286 283 279
96 103 161 196 196 199 251 273 291 298 331 31 44 51 40 39 53 60 67 68 64 63 59 53 40 32 36 30 13 8 7 3 358 356 348 339 334 327 331 339 334 326 324 322 320 320 319 318 316 314 313 313 311 309 308 305 302 298 294 292 289 283 279
104 108 123 150 161 170 188 104 78 70 66 61 54 49 48 61 72 73 72 69 64 58 50 47 42 35 38 32 20 15 11 5 2 358 356 349 340 339 345 347 339 331 328 323 319 319 319 316 313 311 310 312 311 308 307 307 306 302 297 294 292 288 283
99 102 109 122 140 149 133 109 94 79 73 66 53 53 66 75 77 72 67 62 58 54 46 45 45 39 42 39 29 26 20 16 14 6 360 355 348 346 348 346 342 342 339 330 324 322 319 317 316 312 311 311 309 307 307 307 307 304 298 296 297 295 292
102 111 118 118 122 126 123 118 103 86 75 68 65 74 81 80 73 65 63 60 57 56 52 52 52 46 48 46 36 34 33 30 26 20 13 8 4 360 356 352 350 350 346 335 331 331 326 323 321 318 317 314 309 308 307 306 306 304 299 298 298 300 303
101 117 123 112 106 109 112 111 101 85 79 84 87 87 84 80 75 68 65 63 61 61 58 56 56 52 52 49 41 38 40 38 33 29 27 19 13 10 4 1 357 350 346 340 339 339 332 326 324 321 321 319 315 313 311 309 307 302 298 299 296 296 303
95 107 114 110 109 106 101 99 95 93 97 98 95 89 83 80 80 75 70 66 63 62 61 58 57 55 54 52 45 40 44 42 32 28 29 24 18 15 10 9 5 352 342 339 340 342 337 332 329 325 324 322 319 316 314 313 309 302 300 304 301 295 296
99 104 109 110 109 102 96 93 96 104 108 102 96 91 85 81 81 78 72 68 64 62 62 60 59 57 55 53 48 43 44 42 28 21 25 25 23 19 13 10 7 355 344 342 344 346 343 338 333 329 327 325 320 317 314 312 310 305 302 306 306 299 299
96 99 102 104 100 98 102 106 109 110 107 101 96 92 86 81 79 77 72 68 65 62 61 61 59 57 54 52 50 45 45 43 31 23 24 23 22 20 15 9 4 354 347 348 348 347 347 342 335 332 329 326 320 316 314 309 307 306 305 306 307 304 304
97 99 99 100 102 105 111 116 114 109 104 101 98 92 85 80 76 72 69 66 63 60 59 59 57 56 54 51 49 45 43 41 33 27 23 18 17 20 17 11 4 356 352 354 351 347 349 343 337 335 330 327 323 316 314 310 304 304 306 306 308 310 310
98 101 106 114 117 114 113 114 112 107 103 99 96 93 87 81 75 69 65 62 60 58 56 56 55 53 52 49 47 45 43 39 32 26 23 15 13 16 16 10 3 358 357 357 353 349 349 343 338 339 333 329 326 320 317 313 306 304 306 306 307 310 313
106 108 114 120 120 118 117 115 111 108 105 98 93 92 88 82 75 69 65 61 59 57 55 54 53 50 49 47 43 41 40 38 33 27 23 17 10 10 11 8 3 360 358 356 353 350 348 344 341 341 339 332 327 324 321 316 311 307 307 311 310 310 315
120 120 120 120 119 118 118 114 109 107 104 102 97 90 84 81 74 67 63 61 59 56 53 52 50 48 47 43 37 33 32 32 28 23 20 15 10 9 8 7 4 0 358 355 352 350 346 345 345 346 345 339 330 326 323 318 313 309 308 312 314 314 316
126 125 124 123 122 121 119 113 110 106 101 98 95 89 84 80 76 68 61 58 56 54 51 49 47 45 44 40 33 27 26 25 20 18 17 12 10 11 8 7 5 0 358 354 349 348 348 349 349 347 344 340 333 327 325 320 314 310 307 309 312 313 313
128 128 126 126 124 122 119 114 111 107 100 94 89 88 84 77 72 67 60 57 54 51 48 46 44 42 41 40 35 26 22 21 16 14 14 10 10 11 7 6 4 358 356 354 350 349 350 349 348 344 339 336 331 326 324 321 315 310 308 307 308 308 309
130 129 129 128 125 123 120 115 110 103 99 95 88 85 83 77 69 62 58 55 51 48 46 43 40 38 37 38 38 31 22 22 18 12 14 12 9 9 7 6 3 357 356 356 353 351 349 348 346 343 339 335 330 325 322 318 315 311 308 306 306 307 308
130 129 128 126 124 123 119 115 111 105 99 95 89 82 79 78 71 60 54 50 47 44 42 40 36 35 32 32 38 35 24 22 18 11 16 14 8 8 7 5 1 357 356 356 353 350 348 346 345 343 340 336 330 325 321 318 316 312 308 306 307 308 309
132 129 128 126 124 123 119 115 111 108 103 96 88 79 74 71 65 58 52 47 43 38 37 37 33 32 29 26 34 34 19 16 16 11 14 13 7 8 6 4 1 357 357 356 351 348 347 344 344 343 341 336 331 326 322 320 318 314 311 309 309 309 309
131 129 128 127 125 123 119 115 109 106 101 94 87 79 73 67 59 54 49 44 41 35 33 32 29 30 28 23 32 35 16 12 17 11 10 11 8 6 4 2 360 356 355 352 348 346 343 341 341 341 340 337 332 328 324 321 319 316 313 310 309 309 309
130 128 127 126 125 123 118 114 109 104 97 91 85 81 78 73 63 55 47 42 39 34 32 31 26 25 24 21 29 35 17 10 16 10 6 10 6 2 2 360 356 354 353 349 346 343 339 340 342 341 340 337 334 330 325 321 319 317 314 311 309 308 307
128 127 126 125 123 121 117 112 107 101 96 91 86 83 83 80 71 59 49 42 39 35 32 31 27 24 24 23 29 38 22 9 13 10 6 9 5 359 359 357 354 354 351 348 344 338 337 343 346 344 342 341 338 334 328 322 319 317 314 311 309 308 307
125 125 124 123 121 119 116 111 105 101 97 91 87 84 82 79 73 62 50 43 40 37 33 32 30 28 31 32 38 46 32 10 11 11 7 8 3 358 356 355 357 355 351 350 345 337 340 345 346 346 347 347 343 337 330 323 318 316 314 311 308 308 306
124 122 121 121 120 117 113 109 106 102 95 89 85 83 81 79 75 65 49 42 41 38 34 34 32 31 36 38 45 53 37 10 12 10 6 7 3 357 356 357 358 355 352 351 344 339 342 345 346 348 349 347 342 338 333 326 321 318 315 311 308 306 304
124 123 122 121 119 116 113 110 105 99 93 88 83 79 79 78 77 74 55 41 40 39 36 36 35 33 37 40 47 54 36 12 14 11 5 6 3 359 358 359 358 355 354 351 346 344 346 347 349 351 349 345 341 340 337 331 326 322 314 309 306 304 306
126 124 123 121 119 117 113 107 101 95 90 86 81 76 75 74 74 77 68 41 37 38 37 36 35 35 38 42 46 46 29 12 13 11 6 6 5 1 359 359 357 354 353 353 352 352 352 352 354 353 347 344 343 344 342 336 330 326 320 317 311 307 309
128 126 124 122 121 117 112 106 102 98 92 87 82 77 72 69 69 72 75 51 34 35 36 35 35 36 37 42 47 39 22 13 12 8 6 7 5 1 356 356 355 352 352 354 356 359 0 359 358 353 346 345 346 348 349 344 339 338 336 334 327 318 317
129 126 124 122 121 117 111 106 102 99 94 88 83 79 73 69 65 64 68 63 36 31 34 34 33 35 34 38 45 38 17 12 14 7 5 6 5 358 349 351 352 348 347 348 351 1 6 3 359 351 346 347 348 349 350 348 345 345 344 343 339 335 332
131 128 125 124 122 118 112 109 104 99 96 91 84 78 72 68 63 58 58 60 48 30 31 32 30 32 32 31 39 38 19 10 13 8 4 4 4 357 346 346 347 342 340 342 347 358 5 3 359 353 347 350 353 352 351 348 346 347 347 346 346 346 345
132 130 129 126 122 118 114 111 107 102 97 93 88 81 75 66 60 54 49 51 51 36 29 29 26 27 28 26 31 35 22 10 11 9 4 1 1 357 347 345 343 335 335 342 351 359 2 359 358 355 349 352 356 355 352 350 348 349 350 350 350 348 348
135 134 133 128 123 119 116 113 107 102 96 92 90 87 84 74 61 55 45 42 45 40 31 27 24 23 23 22 26 30 23 14 10 5 1 357 356 354 349 346 339 330 333 345 355 1 0 356 357 355 348 348 351 352 352 352 352 351 351 351 351 350 349
138 138 134 128 123 119 118 114 109 108 104 100 101 95 86 77 62 55 45 33 35 36 30 25 21 21 20 18 20 25 22 15 12 8 2 355 352 350 348 346 338 330 337 349 355 357 357 354 355 354 348 347 348 348 350 351 349 348 349 350 352 352 352
140 139 135 129 126 123 119 114 109 108 106 101 101 94 82 73 55 45 41 27 22 24 24 20 17 18 18 18 19 21 19 14 11 11 3 352 348 344 342 344 338 334 342 350 352 353 354 352 351 350 347 347 347 348 349 349 344 341 347 351 353 354 355
142 139 135 130 127 126 122 119 116 113 108 97 91 88 80 74 60 42 38 29 15 13 13 13 15 17 16 17 20 21 20 14 8 5 358 349 345 340 339 340 337 338 344 350 352 353 353 350 348 347 345 346 348 349 349 348 344 342 347 352 354 355 356
143 139 136 132 128 126 121 120 120 117 112 99 86 83 75 67 60 46 40 34 23 17 7 3 9 15 15 16 19 20 20 14 5 3 4 352 340 335 335 337 339 342 348 352 353 352 350 348 347 345 345 347 349 349 347 346 345 345 348 352 355 357 358
144 141 138 135 133 133 129 124 120 114 113 110 97 89 74 60 54 42 36 30 21 24 16 0 2 9 13 16 18 19 18 10 0 2 8 353 338 337 340 342 345 347 350 352 353 349 346 347 347 345 346 348 349 348 346 346 345 345 349 354 356 357 358